Location: Cañoncito Colorado
(34.2862°N, 106.8381°W)
Time: 19:43:15
(UTC+00:00)

Daily predictions for brighter satellites

Satellite Brightness Start Highest point End
(mag) Time Altitude Azimuth Time Altitude Azimuth Time Altitude Azimuth
Hubble Space Telescope 2.9 12:03:12 14° SSW 12:04:59 18° SSE 12:07:38 10° ESE
FengYun 1-2 T 4.1 12:01:34 10° N 12:07:08 68° WNW 12:12:43 10° SSW
In-Cosmos 22 Rocket 4.3 12:02:29 10° SSW 12:08:11 57° W 12:13:54 10° N
Aureole 3 Rocket 4.4 12:01:57 10° N 12:08:14 87° E 12:16:49 10° S
Cosmos 968 Rocket 4.2 12:03:48 10° N 12:08:57 55° ENE 12:14:03 10° SSE
CENTAUR R/B 3.8 12:00:55 10° NNW 12:09:32 61° NE 12:18:53 10° SE
Helios 1A Rocket 4.3 12:07:09 10° SE 12:10:08 30° ENE 12:13:07 10° N
COSMO-SKYMED 1 4.1 12:09:34 10° SE 12:13:18 34° ENE 12:17:01 10° N
SL-8 R/B 4.0 12:14:13 12° SW 12:18:33 65° SE 12:23:16 10° ENE
CZ-3 R/B 2.7 12:07:28 18° WSW 12:19:54 61° S 12:25:41 10° ESE
IRS-1D 3.3 12:15:16 10° N 12:20:09 67° WNW 12:25:03 10° SSW
Cosmos 1812 2.7 12:22:44 36° SW 12:22:44 36° SW 12:24:48 10° S
Meteor 1-21 Rocket 4.3 12:16:50 10° SSW 12:22:23 50° W 12:27:51 10° N
SJ 16-02 2.0 12:22:31 30° WSW 12:22:31 30° WSW 12:26:10 10° SSW
SL-16 R/B 3.3 12:24:24 23° NW 12:24:24 23° NW 12:28:24 10° N
Cosmos 1110 Rocket 4.4 12:21:20 10° SW 12:26:17 41° WNW 12:31:17 10° N
OAO 1 Rocket 4.5 12:23:05 22° WSW 12:26:29 78° SSE 12:31:46 10° E
Cosmos 1302 Rocket 4.1 12:24:16 10° S 12:29:24 77° ESE 12:34:35 10° NNE
Cosmos 1869 4.4 12:31:44 21° WSW 12:31:44 21° WSW 12:33:32 10° SSW
USA 234 4.3 12:27:18 10° ESE 12:33:16 39° NE 12:39:15 10° NNW
Cosmos 1441 Rocket 4.1 12:32:10 10° SSE 12:35:21 44° E 12:38:32 10° NNE
deb Kosmos-1261 4.1 12:34:37 10° SSW 12:37:38 80° ESE 12:40:02 10° NE
Cosmos 1025 Rocket 3.0 12:35:44 10° SSW 12:40:01 64° W 12:44:21 10° N
Cosmos 371 Rocket 4.3 12:39:49 19° WNW 12:41:47 25° W 12:45:41 10° SSW
OAO 1 4.5 12:39:25 19° W 12:43:24 86° N 12:48:52 10° E
BREEZE-M DEB (TANK) 2.7 12:45:20 10° SW 12:47:42 49° SE 12:50:09 10° ENE
SKYMED 2 3.7 12:45:37 10° S 12:49:51 53° W 12:54:06 10° NNW
Cosmos 1400 Rocket 3.0 12:48:16 10° NNW 12:51:42 39° W 12:55:05 10° SSW
Okean 2 Rocket 3.0 12:47:22 10° N 12:51:44 72° W 12:56:05 10° S
Cosmos 1674 Rocket 4.4 12:52:46 10° SW 12:56:34 28° WNW 13:00:22 10° NNW
Cosmos 1818 3.9 12:54:00 10° SW 12:59:05 42° WNW 13:04:15 10° NNE
BREEZE-M DEB (TANK) 3.9 12:54:44 10° SW 13:01:37 73° SE 13:04:26 10° NE
H-2A R/B 3.6 13:00:24 10° WSW 13:03:05 32° S 13:11:09 10° ESE
Cosmos 1464 Rocket 4.0 12:57:54 10° NNW 13:03:52 57° W 13:09:50 10° SSW
Cosmos 1452 Rocket 4.4 12:59:40 10° WSW 13:03:57 25° WNW 13:08:16 10° N
Cosmos 2263 4.4 13:01:06 10° NNW 13:06:44 57° WSW 13:12:19 10° S
Cosmos 1943 4.1 13:06:18 10° WSW 13:10:54 26° WNW 13:15:32 10° N
Cosmos 332 Rocket 4.0 13:07:09 10° NNW 13:11:45 50° WSW 13:16:19 10° S
Meteor 2-1 Rocket 4.3 13:06:32 10° NNW 13:12:20 70° W 13:17:57 10° S
Atlas Centaur 2 3.8 13:06:58 10° SW 13:14:00 41° SSE 13:19:55 10° E
Cosmos 1850 Rocket 4.4 13:09:29 10° NNW 13:14:20 43° WSW 13:19:12 10° S
Cosmos 2369 Rocket 2.9 13:10:38 10° NW 13:15:40 33° WSW 13:20:42 10° SSW
Cosmos 2297 4.4 13:11:46 10° NW 13:16:45 33° WSW 13:21:42 10° SSW
ARIANE 5 R/B 3.8 13:11:54 10° NNE 13:16:52 48° E 13:21:51 10° S
Cosmos 1603 4.0 13:12:21 10° SW 13:17:52 49° WNW 13:23:25 10° N
Cosmos 2034 Rocket 4.1 13:11:34 10° NNW 13:17:53 69° W 13:24:12 10° S
Cosmos 1455 Rocket 3.1 13:17:08 10° N 13:21:30 90° NE 13:25:53 10° S
